Terminal Aerodrome Forecast
Issued by NWS

Home | Current Version | Previous Version | Text Only | Print | Product List | Glossary On
Versions: 1 2 3 4 5 6 7 8 9 10 11 12 13 14 15 16 17 18 19 20
488
FTUS41 KGYX 121122
TAFPSM
TAF
KPSM 121122Z 1212/1312 27008G16KT P6SM FEW040 SCT120
     FM121300 26007KT P6SM SCT050 SCT100
     FM122100 20006KT P6SM BKN050 BKN080
     FM130600 26005KT P6SM OVC040=

USA.gov is the U.S. government's official web portal to all federal, state and local government web resources and services.